Location: Ballard
(38.3614°N, 94.1431°W)
Time: 07:38:14
(UTC-06:00)

Envisat - Pass Details

Date: 22 October 2019
Orbit: 764 x 766 km, 98.1° (Epoch: 17 November)

Event Time Altitude Azimuth Distance (km) Brightness Sun altitude
Rises 19:33:25 0° 172° (S) 3,217 6.2 -13.3°
Reaches altitude 10° 19:35:43 10° 175° (S) 2,295 5.5 -13.7°
Maximum altitude 19:40:45 69° 259° (WSW) 821 3.4 -14.7°
Drops below altitude 10° 19:45:50 10° 342° (NNW) 2,309 5.7 -15.7°
Sets 19:48:10 0° 345° (NNW) 3,239 6.4 -16.1°
